Wind_Speed
27 29 23 15 4 7 8 8 5 3 6 14 19 22 25 25 27 35 29 31 30 34 38 34 29 31 33 29 23 20 23 8 17 16 19 17 17 13 12 12 12 12 12 13 20 27 34 41 44
26 27 19 16 11 7 5 7 9 7 3 6 9 16 19 24 28 30 32 35 36 34 30 35 33 33 38 31 28 21 15 16 20 21 14 11 12 12 12 8 8 9 11 12 19 25 30 36 38
31 27 24 16 13 6 2 3 8 9 9 5 9 9 14 17 18 28 33 41 42 39 34 32 38 27 18 27 25 37 35 33 21 12 6 11 10 9 10 7 7 10 12 11 16 23 25 29 33
35 31 26 16 14 7 5 4 3 10 11 10 10 9 7 8 13 19 27 29 32 48 37 32 29 19 20 15 8 6 25 38 25 12 11 6 9 8 8 6 7 8 11 10 10 16 19 22 27
38 34 26 17 10 10 8 6 4 3 10 13 13 14 13 12 11 13 19 22 22 31 40 30 33 27 27 30 26 16 16 16 21 12 13 5 1 4 7 6 6 5 8 10 10 12 14 18 19
35 24 29 20 14 6 6 9 9 6 0 7 12 15 17 15 14 14 17 18 19 21 29 26 26 31 26 29 25 21 11 7 7 8 15 4 4 3 5 6 6 7 8 9 9 10 12 13 16
18 31 35 22 14 7 4 5 7 9 8 4 6 10 10 8 10 15 18 19 21 20 25 21 18 17 19 19 19 19 17 13 17 9 9 7 5 2 6 6 8 11 11 12 9 9 12 13 12
18 37 34 20 16 9 6 5 3 7 10 9 6 10 13 14 12 13 16 19 22 23 23 25 24 21 19 23 22 17 14 13 13 10 7 7 2 3 9 9 8 9 8 12 12 9 8 10 12
27 27 26 14 16 12 6 5 5 4 8 8 7 4 12 14 14 12 13 15 17 26 30 31 27 26 21 14 15 17 20 12 6 7 7 4 4 6 11 8 9 10 10 8 11 12 9 9 10
16 22 16 13 13 14 9 6 3 5 5 7 5 4 7 11 13 13 12 11 11 19 26 28 27 24 20 18 17 17 20 15 15 14 13 9 10 10 13 9 7 6 4 4 9 13 13 12 11
22 17 17 15 17 16 15 10 6 6 5 3 6 5 4 8 11 12 11 10 7 17 19 17 15 16 17 19 17 19 17 16 18 16 10 13 14 13 13 11 9 5 6 2 4 8 14 9 15
22 18 21 25 21 17 13 10 9 9 10 6 11 8 4 5 8 8 10 9 7 18 22 19 19 16 14 13 15 20 22 19 16 15 15 17 16 16 13 10 12 11 5 4 5 4 11 4 3
21 21 27 28 29 20 20 15 9 8 11 12 10 11 9 3 4 8 6 7 9 18 22 20 18 17 16 15 17 17 19 16 15 18 18 21 20 16 11 13 10 10 10 7 6 4 4 4 4
14 19 13 20 26 22 27 22 15 10 10 11 9 13 13 10 9 9 11 6 8 15 24 23 19 20 20 19 19 16 18 18 17 19 21 19 20 18 14 12 12 11 11 10 8 5 4 3 3
14 13 19 14 23 13 27 26 14 18 15 9 7 7 11 14 15 14 9 10 7 12 24 26 23 22 23 21 23 19 17 15 18 20 22 22 14 16 14 12 14 13 13 12 12 11 8 7 6
17 20 10 24 7 10 26 16 19 23 23 15 13 6 7 12 16 17 10 9 8 8 20 28 27 25 26 24 25 23 21 18 18 20 21 21 19 18 17 17 15 16 16 15 15 15 15 12 10
13 18 14 22 29 23 21 13 27 25 31 16 15 13 10 10 13 16 11 7 8 8 14 29 28 28 28 27 26 25 24 23 18 19 21 22 20 20 21 21 20 20 21 21 19 18 18 16 13
12 10 20 26 24 24 20 21 21 25 25 16 15 17 14 12 11 15 16 8 7 6 12 25 30 29 28 27 27 27 25 24 19 18 19 17 18 20 23 23 25 26 25 26 25 24 19 18 18
12 18 34 25 21 25 24 18 29 27 20 23 17 18 18 15 13 14 13 10 7 6 8 22 31 30 28 25 25 25 25 26 21 17 17 18 20 23 25 27 24 24 23 23 24 25 22 19 20
15 18 21 21 21 31 25 24 14 18 30 25 21 18 20 16 17 14 8 11 7 6 4 17 28 29 29 27 26 27 26 24 21 18 20 22 25 27 25 23 25 23 20 19 21 21 20 20 19
23 20 19 11 29 20 31 27 9 20 21 31 23 21 21 21 18 17 11 6 10 5 2 12 21 28 29 29 28 26 23 21 21 21 24 26 28 26 24 25 25 25 25 23 21 21 21 21 19
24 24 21 17 27 31 38 32 22 32 33 29 26 25 23 22 22 19 17 8 7 7 4 10 18 22 24 25 28 24 22 24 24 23 26 23 27 25 22 21 23 25 24 21 18 18 17 14 15
28 27 26 26 29 35 38 30 28 27 21 20 25 27 27 27 23 22 22 16 11 7 6 8 11 18 20 23 25 24 24 24 26 20 10 16 20 17 15 15 19 24 25 22 19 17 15 16 15
29 30 30 27 29 28 31 26 36 30 21 18 21 23 25 26 26 25 22 23 17 13 9 11 9 12 16 18 20 22 21 22 17 10 20 16 11 10 12 17 26 23 24 23 21 18 17 15 15
31 31 30 27 28 28 29 28 29 31 25 21 22 21 19 17 20 24 24 26 24 18 13 13 13 11 10 14 18 20 22 22 22 23 13 14 11 17 16 20 25 23 20 24 24 23 21 19 15
31 30 28 30 28 26 23 29 20 35 33 24 22 21 17 16 15 20 22 25 31 24 19 16 13 10 12 15 17 18 20 24 30 24 18 17 13 21 17 17 19 17 18 18 22 21 17 17 18
31 27 32 29 25 26 30 30 36 32 28 23 21 26 24 18 16 20 23 25 29 34 27 25 19 12 11 14 19 20 21 24 27 23 23 7 22 25 23 17 12 11 11 5 2 11 16 16 17
28 28 28 25 25 24 32 30 27 29 26 6 20 27 29 28 23 21 23 23 27 32 35 33 31 22 14 14 18 19 25 26 25 22 19 15 16 16 19 12 11 13 16 10 7 3 1 7 12
26 29 28 28 28 26 33 32 24 28 26 14 29 26 29 40 28 25 25 26 28 31 35 37 35 27 21 14 17 18 24 30 31 30 26 24 18 13 15 11 10 10 14 13 11 10 6 3 6
31 32 31 30 28 30 33 29 19 27 23 20 25 32 40 28 27 25 26 29 30 33 35 38 37 34 29 25 21 20 21 24 26 27 20 21 23 20 11 11 11 12 14 17 18 18 15 9 6
Wind_Direction
9 6 4 3 355 317 284 221 175 171 201 213 219 223 226 221 201 198 201 208 218 219 214 223 226 229 225 228 254 267 291 285 313 6 1 356 350 28 17 11 44 54 56 50 49 59 54 53 49
10 13 357 2 355 334 295 243 190 176 182 207 198 217 221 222 221 218 213 203 206 213 210 222 224 240 237 233 244 257 236 242 319 329 335 352 24 35 30 359 54 72 62 53 68 64 60 59 53
5 7 16 344 344 352 44 198 214 199 186 197 191 192 206 210 214 217 217 219 207 201 201 219 228 208 205 220 242 249 245 267 289 344 342 12 26 35 31 12 76 84 64 73 73 60 62 59 53
1 6 6 2 345 2 72 79 195 212 197 201 208 207 201 200 212 218 222 230 234 211 201 222 228 192 183 183 225 282 254 246 272 313 332 35 35 22 32 26 111 91 70 80 67 59 58 60 53
358 357 345 8 4 359 27 50 45 264 217 220 217 223 228 217 207 215 223 235 236 236 209 217 216 199 203 204 211 243 290 242 259 312 311 8 195 54 46 94 112 73 59 76 67 60 64 60 48
350 352 352 0 2 5 30 55 46 66 67 218 215 226 232 235 236 230 219 230 241 243 242 248 231 232 253 246 233 269 239 218 288 317 289 190 192 59 111 109 71 53 67 88 79 65 57 65 50
327 345 344 350 4 350 355 21 55 31 9 345 248 191 188 207 229 236 234 237 238 239 244 249 258 267 275 281 274 280 266 256 276 295 220 178 188 131 156 142 76 84 72 79 89 78 59 56 30
284 320 326 342 355 353 302 269 329 7 2 349 334 222 188 185 195 215 230 236 242 240 237 247 255 258 267 267 271 277 250 223 218 205 234 199 164 178 176 141 105 89 74 73 76 73 73 50 29
309 302 320 346 347 353 333 299 290 322 344 344 332 258 231 210 211 219 233 238 242 240 238 241 247 253 257 252 262 259 223 223 194 236 217 243 206 195 176 147 100 86 76 76 73 69 65 42 33
322 303 334 345 346 352 341 343 32 14 346 330 326 297 237 231 241 248 244 242 249 235 228 230 236 244 238 235 226 222 219 213 209 204 228 233 201 203 197 184 140 89 58 78 73 77 53 29 19
348 340 350 1 0 357 348 342 342 359 359 9 18 332 284 269 263 263 248 237 229 220 210 208 208 215 211 217 216 219 224 199 195 197 220 204 208 212 218 219 225 224 5 198 85 52 38 44 1
344 356 5 14 6 357 347 328 313 338 345 3 39 6 328 301 286 278 271 249 214 203 199 199 199 205 201 213 216 220 206 198 202 209 200 202 201 210 215 226 240 240 262 230 193 122 43 43 47
357 22 24 23 4 1 346 334 316 315 339 340 24 17 3 334 293 308 295 258 241 206 202 201 203 202 204 220 210 196 190 193 197 191 194 193 205 202 222 227 234 231 246 235 212 203 51 33 56
8 53 328 38 287 323 354 348 318 301 296 327 6 10 3 349 330 319 320 295 254 215 202 205 203 204 200 208 201 202 186 193 197 200 198 200 211 211 215 224 236 238 240 236 231 236 319 329 345
42 149 234 304 284 286 315 312 296 302 283 286 319 356 355 357 349 340 312 315 286 241 206 206 204 203 201 203 197 198 196 200 207 209 211 209 206 212 221 232 243 243 242 249 240 243 280 305 292
93 141 193 253 269 286 298 318 313 281 294 270 277 283 309 337 341 346 332 320 306 260 217 202 206 203 204 202 205 202 208 209 212 213 215 217 223 227 239 236 253 253 253 257 256 252 273 282 280
134 148 235 255 262 261 278 268 295 285 287 283 273 268 276 298 331 332 339 328 319 288 216 204 204 207 206 209 211 210 215 216 221 221 220 224 227 239 243 256 261 265 259 264 265 263 272 269 276
138 62 292 262 252 253 246 223 275 284 277 279 278 273 273 284 313 329 329 342 347 313 215 204 203 210 211 213 214 218 223 221 227 228 227 235 239 248 254 264 270 273 270 265 263 264 269 270 275
201 175 258 255 260 292 289 256 258 282 283 279 270 270 264 269 278 310 330 337 2 348 223 205 205 209 213 212 215 220 223 225 229 230 232 239 248 256 261 266 268 271 266 262 259 259 267 271 277
249 220 219 226 300 290 289 294 297 298 292 281 281 271 268 269 261 274 303 335 349 1 235 209 205 209 215 216 218 220 224 227 234 241 250 255 263 268 266 263 268 271 267 263 264 265 271 274 276
262 255 241 214 240 278 283 283 258 213 268 267 259 275 263 266 261 252 258 315 328 354 273 206 209 212 216 221 222 224 222 225 234 245 253 263 271 271 263 267 272 274 273 266 264 268 271 271 273
258 260 257 209 222 251 267 272 259 220 234 257 251 261 265 261 258 250 245 263 296 314 296 224 208 210 220 224 227 229 226 226 234 252 251 264 273 273 275 275 276 270 267 263 262 272 268 270 263
262 261 261 254 237 253 259 265 266 263 258 244 251 249 254 258 253 250 240 247 259 267 258 262 229 215 212 217 222 224 227 228 236 266 289 267 268 277 273 281 281 270 264 262 260 263 264 263 261
263 266 266 266 263 260 262 257 262 266 271 260 256 254 252 254 254 243 243 242 242 252 229 224 239 234 226 217 219 219 214 221 226 251 270 249 250 279 280 282 288 286 260 260 257 253 256 264 260
264 268 268 263 256 256 262 259 271 265 267 268 265 265 261 252 248 244 240 239 230 236 235 211 204 217 233 234 224 216 209 199 196 218 204 213 233 267 273 287 302 304 271 262 261 265 259 256 260
262 261 258 255 255 257 251 257 216 271 265 269 269 272 273 270 256 251 240 237 231 226 229 221 197 193 212 222 226 217 207 197 191 203 210 211 239 248 266 289 308 308 292 268 253 246 246 247 247
253 252 253 261 263 256 253 250 237 256 273 276 307 300 284 269 256 249 251 238 230 229 232 231 225 239 249 227 222 220 214 209 205 206 199 250 252 244 258 277 298 328 342 7 311 249 249 249 245
246 245 251 256 257 255 263 246 265 259 267 281 9 297 282 269 261 249 249 247 235 229 231 230 236 237 243 244 233 233 223 214 215 220 216 239 228 237 261 256 284 312 339 359 12 33 283 249 248
241 244 254 258 263 264 260 269 272 269 265 205 202 235 326 266 259 255 244 241 234 229 228 231 232 232 223 239 244 237 233 223 224 227 217 239 217 224 248 257 274 291 310 327 331 354 10 328 236
247 250 255 260 256 253 267 269 282 273 274 256 231 231 234 253 258 251 247 239 234 229 230 236 237 230 219 228 233 231 222 214 219 218 238 234 226 225 232 255 272 267 279 300 312 319 323 318 266
Height
10982 10976 10974 10972 10971 10970 10969 10967 10966 10967 10968 10969 10971 10973 10976 10980 10985 10988 10991 10995 10998 10999 11003 11005 11006 11008 11009 11011 11012 11014 11012 11014 11012 11011 11010 11012 11010 11009 11010 11012 11010 11009 11009 11007 11007 11002 10997 10993 10991
10983 10979 10974 10969 10969 10968 10967 10966 10965 10966 10967 10968 10971 10971 10973 10976 10980 10984 10988 10992 10995 10996 11001 11004 11005 11005 11007 11010 11011 11013 11012 11012 11011 11012 11013 11012 11011 11009 11010 11013 11012 11011 11010 11009 11009 11005 11001 10997 10996
10984 10981 10976 10972 10972 10969 10967 10966 10966 10965 10966 10967 10969 10970 10972 10974 10976 10980 10983 10983 10989 10992 10998 11001 11002 11003 11004 11007 11011 11010 11011 11011 11013 11015 11015 11013 11011 11011 11010 11013 11013 11013 11013 11011 11010 11008 11004 11001 11000
10985 10982 10979 10976 10972 10970 10967 10967 10966 10966 10966 10967 10968 10970 10971 10972 10974 10977 10979 10980 10982 10988 10993 10997 10999 11000 11002 11006 11008 11009 11009 11010 11012 11014 11016 11013 11014 11014 11011 11013 11014 11014 11014 11013 11012 11010 11007 11004 11005
10989 10984 10983 10978 10974 10971 10968 10966 10965 10966 10966 10966 10967 10969 10970 10972 10974 10975 10977 10979 10980 10985 10986 10992 10995 10998 11001 11000 11003 11005 11006 11007 11011 11011 11013 11011 11016 11014 11013 11014 11015 11015 11015 11014 11014 11012 11010 11008 11006
10990 10989 10983 10978 10974 10972 10969 10966 10966 10965 10965 10965 10966 10967 10969 10970 10972 10974 10977 10978 10980 10980 10982 10985 10989 10992 10994 10996 10997 11001 11003 11005 11008 11008 11012 11012 11016 11014 11015 11016 11015 11016 11017 11015 11015 11014 11013 11010 11007
10973 10981 10982 10978 10974 10971 10969 10968 10966 10966 10965 10964 10964 10964 10966 10968 10970 10972 10975 10978 10979 10980 10980 10981 10984 10988 10989 10991 10993 10998 11002 11005 11007 11008 11012 11014 11015 11014 11016 11017 11016 11017 11018 11017 11016 11016 11015 11013 11010
10992 10984 10983 10978 10973 10971 10969 10968 10967 10966 10966 10964 10964 10964 10965 10966 10968 10969 10972 10974 10976 10977 10979 10981 10984 10987 10987 10991 10994 10997 11002 11003 11005 11006 11012 11014 11014 11015 11017 11017 11018 11018 11018 11018 11018 11017 11017 11015 11013
10989 10986 10983 10976 10973 10970 10967 10966 10965 10965 10965 10965 10965 10964 10966 10967 10968 10969 10971 10972 10973 10975 10978 10981 10983 10986 10988 10990 10993 10997 11003 11001 11001 11006 11012 11013 11015 11016 11018 11018 11018 11019 11019 11020 11019 11019 11019 11018 11017
10991 10984 10980 10976 10975 10972 10969 10967 10965 10965 10965 10965 10965 10966 10967 10968 10969 10970 10970 10969 10969 10971 10975 10978 10982 10985 10987 10990 10993 10997 10998 10999 11003 11007 11010 11013 11015 11016 11018 11018 11019 11019 11020 11020 11020 11020 11021 11021 11019
10984 10979 10978 10979 10977 10975 10973 10972 10968 10966 10965 10964 10965 10966 10966 10967 10967 10968 10968 10967 10966 10969 10973 10977 10981 10984 10987 10989 10991 10994 10997 11000 11002 11006 11009 11012 11013 11016 11018 11018 11019 11019 11019 11019 11021 11021 11021 11022 11022
10982 10983 10985 10986 10983 10978 10974 10972 10971 10970 10967 10965 10964 10965 10965 10965 10965 10965 10965 10965 10964 10966 10971 10975 10979 10982 10985 10988 10991 10994 10997 11000 11002 11005 11008 11010 11012 11014 11017 11017 11018 11019 11017 11019 11018 11020 11021 11021 11023
10987 10989 10993 10987 10983 10978 10975 10973 10970 10970 10969 10967 10964 10964 10964 10964 10964 10964 10964 10963 10963 10964 10968 10972 10976 10979 10983 10987 10990 10993 10996 10999 11002 11003 11006 11009 11010 11013 11015 11016 11017 11017 11018 11018 11018 11018 11020 11020 11020
10986 10980 10991 10980 10978 10981 10977 10979 10973 10970 10969 10968 10966 10966 10965 10965 10964 10963 10964 10963 10964 10963 10966 10970 10974 10978 10982 10987 10990 10993 10995 10997 11001 11002 11004 11007 11009 11013 11015 11015 11017 11016 11016 11017 11017 11018 11019 11020 11021
10988 10987 10995 10988 10989 10989 10980 10980 10981 10976 10971 10969 10968 10968 10967 10966 10964 10963 10962 10962 10963 10963 10964 10968 10972 10976 10980 10985 10988 10992 10995 10996 10998 11001 11003 11006 11009 11009 11013 11013 11013 11014 11015 11016 11016 11017 11018 11019 11019
10982 10979 10981 10982 10982 10989 10975 10979 10979 10977 10974 10968 10969 10968 10969 10969 10966 10963 10961 10960 10960 10960 10962 10966 10970 10973 10977 10982 10985 10988 10991 10992 10996 10998 11001 11005 11008 11007 11006 11008 11010 11011 11012 11013 11014 11015 11016 11017 11017
10983 10983 10983 10982 10982 10983 10983 10980 10969 10967 10970 10967 10967 10967 10968 10968 10967 10965 10963 10960 10958 10957 10958 10963 10967 10970 10974 10978 10982 10985 10987 10991 10994 10997 11000 11002 11005 11005 11005 11007 11006 11007 11008 11009 11011 11012 11013 11014 11014
10984 10989 10985 10983 10985 10986 10982 10973 10966 10965 10966 10966 10966 10965 10966 10966 10966 10965 10961 10959 10956 10955 10955 10959 10964 10969 10973 10977 10980 10982 10986 10990 10993 10996 10998 11000 11002 11002 11002 11002 11001 11003 11003 11004 11006 11008 11010 11010 11011
10978 10970 10974 10974 10978 10975 10972 10967 10965 10966 10966 10965 10965 10964 10964 10965 10965 10965 10962 10958 10956 10955 10954 10957 10962 10967 10971 10975 10978 10982 10985 10989 10992 10995 10997 10997 10998 10998 10997 10999 10999 11000 10999 10999 11001 11003 11005 11006 11007
10970 10972 10971 10972 10971 10970 10965 10964 10966 10964 10961 10964 10963 10963 10962 10963 10964 10965 10963 10959 10956 10954 10954 10956 10959 10964 10969 10972 10975 10978 10984 10990 10996 10998 10999 10999 10997 10997 10996 10997 10994 10994 10995 10995 10996 10998 10999 11001 11003
10960 10964 10965 10967 10966 10960 10960 10962 10965 10962 10958 10961 10961 10961 10959 10960 10961 10962 10962 10961 10958 10955 10955 10956 10958 10961 10965 10969 10973 10978 10986 10990 10988 10988 10990 10994 10996 10994 10994 10992 10991 10991 10991 10991 10992 10993 10994 10996 10998
10954 10956 10958 10962 10957 10955 10954 10956 10959 10960 10959 10959 10957 10957 10956 10957 10957 10959 10960 10960 10959 10957 10955 10956 10956 10959 10963 10967 10972 10979 10985 10982 10980 10976 10981 10989 10994 10992 10988 10988 10987 10986 10987 10987 10988 10989 10990 10991 10994
10946 10948 10950 10953 10962 10955 10951 10951 10950 10952 10955 10954 10953 10953 10953 10952 10954 10956 10957 10959 10959 10957 10956 10957 10958 10959 10961 10964 10968 10976 10981 10979 10974 10971 10981 10986 10994 10991 10986 10985 10982 10982 10982 10982 10983 10984 10986 10988 10989
10937 10939 10941 10943 10943 10945 10942 10946 10941 10946 10948 10948 10949 10949 10949 10949 10950 10952 10954 10956 10957 10956 10955 10955 10958 10960 10961 10962 10965 10971 10978 10980 10982 10977 10978 10988 10995 10988 10983 10981 10978 10976 10976 10977 10978 10979 10981 10983 10984
10930 10931 10932 10934 10935 10937 10937 10938 10936 10936 10940 10943 10942 10945 10946 10947 10947 10948 10950 10950 10953 10953 10954 10954 10954 10957 10960 10962 10963 10966 10973 10982 10982 10972 10975 10984 10990 10985 10983 10981 10977 10973 10972 10972 10973 10974 10976 10979 10981
10922 10923 10924 10924 10928 10932 10934 10932 10936 10932 10933 10940 10942 10944 10945 10944 10944 10943 10944 10945 10947 10950 10952 10954 10954 10955 10956 10958 10961 10964 10968 10974 10981 10980 10981 10986 10984 10981 10978 10979 10976 10972 10968 10967 10967 10969 10971 10973 10976
10913 10916 10914 10919 10922 10922 10920 10922 10922 10927 10930 10941 10949 10948 10947 10943 10939 10938 10937 10940 10942 10945 10948 10950 10953 10955 10956 10956 10958 10961 10965 10967 10970 10974 10976 10977 10976 10975 10977 10977 10975 10973 10969 10966 10965 10965 10967 10970 10972
10907 10908 10910 10914 10916 10917 10910 10917 10919 10927 10928 10947 10933 10931 10940 10940 10935 10933 10933 10934 10936 10938 10941 10943 10947 10952 10954 10955 10956 10957 10960 10962 10964 10966 10967 10970 10970 10972 10974 10974 10975 10974 10972 10968 10966 10965 10965 10965 10968
10901 10903 10905 10907 10910 10913 10908 10910 10917 10918 10925 10942 10930 10939 10947 10937 10928 10926 10927 10927 10928 10931 10934 10936 10940 10946 10951 10951 10952 10951 10951 10954 10956 10958 10960 10962 10965 10967 10969 10970 10972 10973 10972 10971 10969 10967 10966 10966 10967
10894 10897 10900 10903 10905 10904 10905 10909 10915 10913 10919 10927 10935 10936 10930 10926 10919 10919 10919 10921 10922 10925 10927 10930 10933 10938 10943 10944 10944 10945 10945 10946 10950 10954 10958 10958 10960 10962 10964 10966 10969 10970 10970 10970 10971 10970 10968 10968 10968